Location: North Mitre
(40.7833°S, 175.4667°E)
Time: 02:55:21
(UTC+00:00)

ADEOS Rocket - Pass Details

Date: 04 August 2024
Orbit: 858 x 1306 km, 98.7° (Epoch: 07 September)

Event Time Altitude Azimuth Distance (km) Brightness Sun altitude
Rises 17:38:07 0° 31° (NNE) 3,712 6.6 -19.6°
Reaches altitude 10° 17:40:31 10° 35° (NE) 2,827 6.0 -19.1°
Maximum altitude 17:46:47 56° 111° (ESE) 1,316 4.0 -18.0°
Drops below altitude 10° 17:53:48 10° 186° (S) 3,165 5.5 -16.6°
Sets 17:56:37 0° 189° (S) 4,189 6.1 -16.1°
